User: anonymous   Login
Location: Unspecified
(0.0000°N, 0.0000°E)
Time: 19:02:55
(UTC+00:00)
Language:

STARLINK-31176 - Orbit

View from above orbital plane
View from above orbital plane
View from above satellite
View from above satellite

Ground track
Ground track

The orbit is defined by the following mean orbital elements,

1 58745U          26145.45870634 +.00000000 +00000-0 +23896-3 0 00008
2 58745  43.0039 146.2855 0001771 295.4501  64.6167 15.27582713    04
Epoch (UTC): 25 May 2026 11:00:32
Eccentricity: 0.0001771
inclination: 43.0039°
perigee height: 482 km
apogee height: 484 km
right ascension of ascending node: 146.2855°
argument of perigee: 295.4501°
revolutions per day: 15.27582713
mean anomaly at epoch: 64.6167°

The dashed part of the orbit path shows where the satellite is in the earth's shadow,  

DLR